Location: Unspecified
(43.9500°N, 64.7900°W)
Time: 08:53:51
(UTC-03:00)

ISS - Visible Passes

Search period start: 22 March 2019 00:00
Search period end: 01 April 2019 00:00
Orbit: 406 x 411 km, 51.6° (Epoch: 22 March)

Date Brightness Start Highest point End Pass type
(mag) Time Alt. Az. Time Alt. Az. Time Alt. Az.
22 Mar -2.7 20:13:40 10° SSW 20:16:30 27° SE 20:19:06 11° E visible
22 Mar -2.1 21:49:44 10° W 21:51:53 33° WNW 21:51:53 33° WNW visible
23 Mar -3.7 20:58:33 10° WSW 21:01:51 74° NNW 21:03:30 27° NE visible
23 Mar -0.3 22:36:04 10° WNW 22:36:17 11° WNW 22:36:17 11° WNW visible
24 Mar -3.8 20:07:33 10° SW 20:10:48 65° SE 20:14:05 10° ENE visible
24 Mar -2.1 21:44:38 10° W 21:47:35 29° NNW 21:47:42 29° NNW visible
25 Mar -2.5 20:53:15 10° W 20:56:23 38° NNW 20:58:59 14° NE visible
25 Mar -0.5 22:30:58 10° NW 22:31:43 14° NW 22:31:43 14° NW visible
26 Mar -3.2 20:01:58 10° WSW 20:05:13 58° NNW 20:08:30 10° NE visible
26 Mar -1.8 21:39:35 10° WNW 21:42:16 22° N 21:42:53 21° N visible
27 Mar -1.9 20:48:08 10° WNW 20:50:59 26° NNW 20:53:50 10° NE visible
27 Mar -0.8 22:25:37 10° NW 22:26:41 16° NNW 22:26:41 16° NNW visible
28 Mar -1.7 21:34:22 10° NW 21:36:57 21° N 21:37:41 19° NNE visible
29 Mar -1.7 20:42:59 10° WNW 20:45:37 21° N 20:48:15 10° NE visible
29 Mar -1.1 22:20:01 10° NW 22:21:22 19° NNW 22:21:22 19° NNW visible
30 Mar -2.0 21:28:52 10° NW 21:31:35 23° N 21:32:16 21° NNE visible
31 Mar -1.7 20:37:37 10° NW 20:40:14 21° N 20:42:51 10° NE visible
31 Mar -1.5 22:14:13 10° NW 22:15:53 25° NNW 22:15:53 25° NNW visible
